(°C)
25°
25°
25°
24°
23°
21°
20°
(°C)
25°
25°
24°
22°
21°
19°
17°
O
O
N
NNW
NNW
NNW
N
(km/u)
8-17
8-20
8-21
11-18
10-22
9-24
8-23
(mm)
0
0
0
0
0
0
0
(%)
4
5
11
13
13
14
14

Zonverhoging

/ 58.9°
sun-icon
UV 7
05:24
20:58
Afnemende maan (327°)
04:05
17:57

METAR voor Innsbruck (LOWI)

Tijd Voorwaarden Temperatuur/
Dauwpunt
Wind Zicht Weer Wolken Luchtdruk Wijzigen Ruw
VFR 25°C / 12°C 70º variable 030º to 110º 7kt >10km - Few Clouds 6000ft 1018 No Significant change LOWI 271220Z 07007KT 030V110 9999 FEW060 25/12 Q1018 NOSIG
VFR 24°C / 12°C 100º variable 030º to 140º 5kt >10km - Few Clouds 6000ft 1018 No Significant change LOWI 271150Z 10005KT 030V140 9999 FEW060 24/12 Q1018 NOSIG
VFR 24°C / 13°C 70º variable 040º to 100º 9kt >10km - Few Clouds 5000ft 1019 No Significant change LOWI 271120Z 07009KT 040V100 9999 FEW050 24/13 Q1019 NOSIG
VFR 23°C / 13°C 90º variable 050º to 150º 6kt >10km - Few Clouds 5000ft 1019 No Significant change LOWI 271050Z 09006KT 050V150 9999 FEW050 23/13 Q1019 NOSIG
VFR 22°C / 13°C variable 6kt >10km - Few Clouds 5000ft 1020 No Significant change LOWI 271020Z VRB06KT 9999 FEW050 22/13 Q1020 NOSIG
VFR 22°C / 12°C 90º variable 040º to 160º 6kt >10km - Few Clouds 4500ft 1020 No Significant change LOWI 270950Z 09006KT 040V160 9999 FEW045 22/12 Q1020 NOSIG
VFR 21°C / 13°C 90º variable 030º to 150º 4kt >10km - Few Clouds 4500ft 1021 No Significant change LOWI 270920Z 09004KT 030V150 9999 FEW045 21/13 Q1021 NOSIG
VFR 20°C / 11°C variable 3kt >10km - Few Clouds 4000ft 1021 No Significant change LOWI 270850Z VRB03KT 9999 FEW040 20/11 Q1021 NOSIG
VFR 19°C / 11°C variable 2kt >10km - Few Clouds 4000ft 1022 No Significant change LOWI 270820Z VRB02KT 9999 FEW040 19/11 Q1022 NOSIG
VFR 18°C / 11°C 300º variable 260º to 360º 3kt >10km - Few Clouds 4000ft 1022 No Significant change LOWI 270750Z 30003KT 260V360 9999 FEW040 18/11 Q1022 NOSIG
VFR 17°C / 11°C variable 2kt >10km - Few Clouds 4000ft 1022 No Significant change LOWI 270720Z VRB02KT 9999 FEW040 17/11 Q1022 NOSIG
VFR 16°C / 11°C variable 2kt >10km - Few Clouds 3000ft 1023 No Significant change LOWI 270650Z VRB02KT 9999 FEW030 16/11 Q1023 NOSIG
VFR 15°C / 11°C variable 2kt >10km - Few Clouds 2000ft 1023 No Significant change LOWI 270620Z VRB02KT 9999 FEW020 15/11 Q1023 NOSIG
VFR 15°C / 11°C variable 2kt >10km - Few Clouds 3500ft 1024 No Significant change LOWI 270550Z VRB02KT 9999 FEW035 15/11 Q1024 NOSIG
VFR 15°C / 11°C variable 2kt >10km - Few Clouds 3500ft
Scattered Clouds 5000ft
1024 No Significant change LOWI 270520Z VRB02KT 9999 FEW035 SCT050 15/11 Q1024 NOSIG
VFR 13°C / 11°C 300º 4kt >10km - Few Clouds 3500ft
Broken Clouds 5000ft
1024 No Significant change LOWI 270450Z 30004KT 9999 FEW035 BKN050 13/11 Q1024 NOSIG
VFR 12°C / 10°C variable 1kt >10km - Few Clouds 3500ft
Scattered Clouds 5000ft
1024 No Significant change LOWI 270420Z VRB01KT 9999 FEW035 SCT050 12/10 Q1024 NOSIG
VFR 11°C / 10°C variable 1kt >10km - Few Clouds 3500ft
Scattered Clouds 5000ft
1024 No Significant change LOWI 270350Z VRB01KT 9999 FEW035 SCT050 11/10 Q1024 NOSIG
VFR 12°C / 10°C variable 2kt >10km - Few Clouds 4800ft 1024 - LOWI 270320Z AUTO VRB02KT 9999 FEW048 12/10 Q1024
VFR 11°C / 10°C variable 1kt >10km - Few Clouds 5000ft 1023 - LOWI 270250Z AUTO VRB01KT 9999 FEW050 11/10 Q1023
VFR 12°C / 10°C variable 1kt >10km - Few Clouds 5000ft 1023 - LOWI 270220Z AUTO VRB01KT 9999 FEW050 12/10 Q1023
VFR 12°C / 10°C variable 1kt >10km - Few Clouds 4800ft
Broken Clouds 5000ft
1024 - LOWI 270150Z AUTO VRB01KT 9999 FEW048 BKN050 12/10 Q1024
VFR 12°C / 10°C variable 1kt >10km - Few Clouds 5000ft 1024 - LOWI 270120Z AUTO VRB01KT 9999 FEW050 12/10 Q1024
VFR 12°C / 10°C variable 1kt >10km - Few Clouds 5000ft 1024 - LOWI 270050Z AUTO VRB01KT 9999 FEW050 12/10 Q1024

VFR

25°C / 12°C

[Meer]
Wind 70º variable 030º to 110º 7kt
Zicht >10km
Weer -
Wolken Few Clouds 6000ft
Luchtdruk 1018
Wijzigen No Significant change
Ruw LOWI 271220Z 07007KT 030V110 9999 FEW060 25/12 Q1018 NOSIG

VFR

24°C / 12°C

[Meer]
Wind 100º variable 030º to 140º 5kt
Zicht >10km
Weer -
Wolken Few Clouds 6000ft
Luchtdruk 1018
Wijzigen No Significant change
Ruw LOWI 271150Z 10005KT 030V140 9999 FEW060 24/12 Q1018 NOSIG

VFR

24°C / 13°C

[Meer]
Wind 70º variable 040º to 100º 9kt
Zicht >10km
Weer -
Wolken Few Clouds 5000ft
Luchtdruk 1019
Wijzigen No Significant change
Ruw LOWI 271120Z 07009KT 040V100 9999 FEW050 24/13 Q1019 NOSIG

VFR

23°C / 13°C

[Meer]
Wind 90º variable 050º to 150º 6kt
Zicht >10km
Weer -
Wolken Few Clouds 5000ft
Luchtdruk 1019
Wijzigen No Significant change
Ruw LOWI 271050Z 09006KT 050V150 9999 FEW050 23/13 Q1019 NOSIG

VFR

22°C / 13°C

[Meer]
Wind variable 6kt
Zicht >10km
Weer -
Wolken Few Clouds 5000ft
Luchtdruk 1020
Wijzigen No Significant change
Ruw LOWI 271020Z VRB06KT 9999 FEW050 22/13 Q1020 NOSIG

VFR

22°C / 12°C

[Meer]
Wind 90º variable 040º to 160º 6kt
Zicht >10km
Weer -
Wolken Few Clouds 4500ft
Luchtdruk 1020
Wijzigen No Significant change
Ruw LOWI 270950Z 09006KT 040V160 9999 FEW045 22/12 Q1020 NOSIG

VFR

21°C / 13°C

[Meer]
Wind 90º variable 030º to 150º 4kt
Zicht >10km
Weer -
Wolken Few Clouds 4500ft
Luchtdruk 1021
Wijzigen No Significant change
Ruw LOWI 270920Z 09004KT 030V150 9999 FEW045 21/13 Q1021 NOSIG

VFR

20°C / 11°C

[Meer]
Wind variable 3kt
Zicht >10km
Weer -
Wolken Few Clouds 4000ft
Luchtdruk 1021
Wijzigen No Significant change
Ruw LOWI 270850Z VRB03KT 9999 FEW040 20/11 Q1021 NOSIG

VFR

19°C / 11°C

[Meer]
Wind variable 2kt
Zicht >10km
Weer -
Wolken Few Clouds 4000ft
Luchtdruk 1022
Wijzigen No Significant change
Ruw LOWI 270820Z VRB02KT 9999 FEW040 19/11 Q1022 NOSIG

VFR

18°C / 11°C

[Meer]
Wind 300º variable 260º to 360º 3kt
Zicht >10km
Weer -
Wolken Few Clouds 4000ft
Luchtdruk 1022
Wijzigen No Significant change
Ruw LOWI 270750Z 30003KT 260V360 9999 FEW040 18/11 Q1022 NOSIG

VFR

17°C / 11°C

[Meer]
Wind variable 2kt
Zicht >10km
Weer -
Wolken Few Clouds 4000ft
Luchtdruk 1022
Wijzigen No Significant change
Ruw LOWI 270720Z VRB02KT 9999 FEW040 17/11 Q1022 NOSIG

VFR

16°C / 11°C

[Meer]
Wind variable 2kt
Zicht >10km
Weer -
Wolken Few Clouds 3000ft
Luchtdruk 1023
Wijzigen No Significant change
Ruw LOWI 270650Z VRB02KT 9999 FEW030 16/11 Q1023 NOSIG

VFR

15°C / 11°C

[Meer]
Wind variable 2kt
Zicht >10km
Weer -
Wolken Few Clouds 2000ft
Luchtdruk 1023
Wijzigen No Significant change
Ruw LOWI 270620Z VRB02KT 9999 FEW020 15/11 Q1023 NOSIG

VFR

15°C / 11°C

[Meer]
Wind variable 2kt
Zicht >10km
Weer -
Wolken Few Clouds 3500ft
Luchtdruk 1024
Wijzigen No Significant change
Ruw LOWI 270550Z VRB02KT 9999 FEW035 15/11 Q1024 NOSIG

VFR

15°C / 11°C

[Meer]
Wind variable 2kt
Zicht >10km
Weer -
Wolken Few Clouds 3500ft
Scattered Clouds 5000ft
Luchtdruk 1024
Wijzigen No Significant change
Ruw LOWI 270520Z VRB02KT 9999 FEW035 SCT050 15/11 Q1024 NOSIG

VFR

13°C / 11°C

[Meer]
Wind 300º 4kt
Zicht >10km
Weer -
Wolken Few Clouds 3500ft
Broken Clouds 5000ft
Luchtdruk 1024
Wijzigen No Significant change
Ruw LOWI 270450Z 30004KT 9999 FEW035 BKN050 13/11 Q1024 NOSIG

VFR

12°C / 10°C

[Meer]
Wind variable 1kt
Zicht >10km
Weer -
Wolken Few Clouds 3500ft
Scattered Clouds 5000ft
Luchtdruk 1024
Wijzigen No Significant change
Ruw LOWI 270420Z VRB01KT 9999 FEW035 SCT050 12/10 Q1024 NOSIG

VFR

11°C / 10°C

[Meer]
Wind variable 1kt
Zicht >10km
Weer -
Wolken Few Clouds 3500ft
Scattered Clouds 5000ft
Luchtdruk 1024
Wijzigen No Significant change
Ruw LOWI 270350Z VRB01KT 9999 FEW035 SCT050 11/10 Q1024 NOSIG

VFR

12°C / 10°C

[Meer]
Wind variable 2kt
Zicht >10km
Weer -
Wolken Few Clouds 4800ft
Luchtdruk 1024
Wijzigen -
Ruw LOWI 270320Z AUTO VRB02KT 9999 FEW048 12/10 Q1024

VFR

11°C / 10°C

[Meer]
Wind variable 1kt
Zicht >10km
Weer -
Wolken Few Clouds 5000ft
Luchtdruk 1023
Wijzigen -
Ruw LOWI 270250Z AUTO VRB01KT 9999 FEW050 11/10 Q1023

VFR

12°C / 10°C

[Meer]
Wind variable 1kt
Zicht >10km
Weer -
Wolken Few Clouds 5000ft
Luchtdruk 1023
Wijzigen -
Ruw LOWI 270220Z AUTO VRB01KT 9999 FEW050 12/10 Q1023

VFR

12°C / 10°C

[Meer]
Wind variable 1kt
Zicht >10km
Weer -
Wolken Few Clouds 4800ft
Broken Clouds 5000ft
Luchtdruk 1024
Wijzigen -
Ruw LOWI 270150Z AUTO VRB01KT 9999 FEW048 BKN050 12/10 Q1024

VFR

12°C / 10°C

[Meer]
Wind variable 1kt
Zicht >10km
Weer -
Wolken Few Clouds 5000ft
Luchtdruk 1024
Wijzigen -
Ruw LOWI 270120Z AUTO VRB01KT 9999 FEW050 12/10 Q1024

VFR

12°C / 10°C

[Meer]
Wind variable 1kt
Zicht >10km
Weer -
Wolken Few Clouds 5000ft
Luchtdruk 1024
Wijzigen -
Ruw LOWI 270050Z AUTO VRB01KT 9999 FEW050 12/10 Q1024

TAF voor Innsbruck (LOWI)

From till


Maximum Temperature 27ºC on . Minimum Temperature 14ºC on .
From till Wind 80º 10kt. Visibility 10km or more. Scattered Clouds 5000ft.
Becoming from till Wind variable 3kt. Visibility 10km or more. Scattered Clouds 5000ft.
Temporarly from till Wind 270º 7kt. Light Showers Rain .

Ruw: TAF LOWI 271115Z 2712/2812 08010KT 9999 SCT050 TX27/2714Z TN14/2806Z BECMG 2718/2720 VRB03KT TEMPO 2722/2812 27007KT -SHRA

Radar for Innsbruck

Motregen
Licht
Matig
Zwaar
Zeer zwaar
Hagel

De locatiemarkering is op Innsbruck geplaatst . Deze animation toont de neerslag radar van het afgelopen uur, maar ook de 2h verwachting. Motregen of lichte sneeuwval kan onzichtbaar zijn voor de radar. De neerslagintensiteit wordt met kleuren weergegeven, van lichtblauw tot oranje.
Copyright 2022 Deutscher Wetterdienst / meteoblue.

Huidige satelliet- en regenbeelden voor Innsbruck, Oostenrijk

De locatiemarkering is op Innsbruck geplaatst. [Meer]

Het realtime satellietbeeld combineert zichtbaar licht overdag met infraroodstraling 's nachts. 's Nachts is het beeld niet donker, omdat infraroodstraling temperatuurverschillen kan waarnemen. Helaas zijn lage wolken en mist moeilijk te onderscheiden van grondtemperaturen en kunnen dus 's nachts bijna onzichtbaar zijn. Meteosat-satellietbeelden voor Europa worden elke 5 minuten in real time bijgewerkt. De beelden van GOES-16/GOES-17 (Noord- en Zuid-Amerika) en Himawari (Azië) worden om de 10 minuten bijgewerkt.

Neerslag wordt geschat door middel van radar en satellieten. Tijdens de nacht zijn de schattingen van satellieten minder nauwkeurig dan overdag. Oranje kruizen geven plaatsten aan waar bliksem werd waargenomen (boven Europa).

Copyright 2022 EUMETSAT / meteoblue. Bliksemgegevens verstrekt door nowcast.

Terug naar boven